CW6151 Weather Reports


Display with metric or nautical units.
time (UTC)temp
F
wind
direction
speed
MPH
gust
MPH
rain 1hr
in
rain 24hr
in
rain mn
in
humidity
%
barometer
mb
20260507213030 64 288 0.0 8.0 0.00 0.11 0.01 36 1001.2
20260507212527 64 274 0.0 8.0 0.00 0.11 0.01 32 1001.2
20260507212028 65 324 1.0 5.0 0.00 0.17 0.01 33 1001.2
20260507211528 65 305 0.0 5.0 0.00 0.17 0.01 34 1001.2
20260507211029 65 291 0.0 9.0 0.00 0.17 0.01 34 1001.2
20260507210527 65 312 0.0 9.0 0.00 0.17 0.01 33 1001.4
20260507210027 64 349 1.0 9.0 0.00 0.17 0.01 32 1001.4
20260507205527 65 223 3.0 9.0 0.00 0.17 0.01 31 1001.4
20260507205027 65 236 1.0 5.0 0.00 0.17 0.01 32 1001.2
20260507204526 65 316 0.0 4.0 0.00 0.17 0.01 34 1001.2
20260507204027 65 302 0.0 8.0 0.00 0.17 0.01 34 1001.2
20260507203526 65 275 1.0 8.0 0.00 0.17 0.01 31 1001.3
20260507203027 64 315 1.0 13.0 0.00 0.17 0.01 31 1001.3
20260507202525 64 302 0.0 13.0 0.00 0.17 0.01 33 1001.3
20260507202025 65 261 0.0 10.0 0.00 0.21 0.01 32 1001.2
20260507201531 65 215 1.0 12.0 0.00 0.21 0.01 33 1001.2
20260507201025 65 316 2.0 12.0 0.00 0.21 0.01 32 1001.2
20260507200527 65 215 0.0 12.0 0.00 0.21 0.01 32 1001.3
20260507200024 66 307 3.0 12.0 0.00 0.21 0.01 32 1001.3
20260507195524 65 309 0.0 5.0 0.00 0.21 0.01 35 1001.3
20260507195028 65 335 0.0 10.0 0.00 0.21 0.01 35 1001.3
20260507194523 65 275 1.0 10.0 0.00 0.21 0.01 35 1001.3
20260507194023 66 248 1.0 10.0 0.00 0.21 0.01 33 1001.3
20260507193524 65 323 1.0 8.0 0.00 0.21 0.01 35 1001.6
20260507193026 65 224 0.0 10.0 0.00 0.21 0.01 34 1001.6
20260507192521 65 235 0.0 12.0 0.00 0.21 0.01 34 1001.6
20260507192021 66 264 3.0 12.0 0.00 0.21 0.01 35 1001.7
20260507191523 66 315 3.0 12.0 0.00 0.21 0.01 33 1001.7
20260507191022 66 300 2.0 12.0 0.00 0.21 0.01 33 1001.7
20260507190520 66 331 0.0 6.0 0.00 0.21 0.01 35 1001.7
20260507190020 66 243 0.0 12.0 0.00 0.21 0.01 35 1001.7
20260507185519 66 317 2.0 12.0 0.00 0.21 0.01 37 1001.7
20260507185020 65 331 0.0 12.0 0.00 0.21 0.01 36 1001.8
20260507184518 66 294 3.0 12.0 0.00 0.21 0.01 35 1001.8
20260507184019 66 294 0.0 7.0 0.00 0.21 0.01 38 1001.8
20260507183518 65 269 1.0 7.0 0.00 0.21 0.01 35 1001.9
20260507183028 65 233 1.0 14.0 0.00 0.21 0.01 36 1001.9
20260507182517 66 225 4.0 14.0 0.00 0.21 0.01 34 1001.9
20260507182017 65 341 1.0 10.0 0.00 0.21 0.01 37 1001.9
20260507181516 65 260 1.0 11.0 0.00 0.21 0.01 34 1001.9
20260507181016 65 256 2.0 10.0 0.00 0.21 0.01 35 1001.9
20260507180516 65 311 1.0 13.0 0.00 0.21 0.01 37 1002.0
20260507180017 65 301 4.0 14.0 0.00 0.21 0.01 35 1002.0
20260507175515 65 312 1.0 10.0 0.00 0.21 0.01 39 1002.0
20260507175015 65 302 4.0 11.0 0.00 0.21 0.01 37 1001.9
20260507174514 65 302 3.0 11.0 0.00 0.21 0.01 34 1001.9
20260507174013 66 325 2.0 9.0 0.00 0.21 0.01 37 1001.9
20260507173514 66 319 3.0 12.0 0.00 0.21 0.01 37 1002.1
20260507173013 65 321 1.0 8.0 0.00 0.21 0.01 41 1002.1
20260507172512 65 319 3.0 8.0 0.00 0.21 0.01 38 1002.1
20260507172011 65 297 1.0 11.0 0.00 0.21 0.01 37 1002.2
20260507171511 64 326 2.0 11.0 0.00 0.21 0.01 44 1002.2
20260507171009 64 355 4.0 13.0 0.00 0.21 0.01 43 1002.2
20260507170509 64 257 6.0 13.0 0.00 0.21 0.01 46 1002.3
20260507170007 63 205 3.0 12.0 0.00 0.21 0.01 45 1002.3
20260507165507 64 223 2.0 12.0 0.00 0.21 0.01 48 1002.3
20260507165005 63 223 5.0 12.0 0.00 0.21 0.01 51 1002.5
20260507164508 63 269 3.0 9.0 0.00 0.21 0.01 50 1002.5
20260507164004 62 271 1.0 9.0 0.00 0.21 0.01 53 1002.5
20260507163506 61 256 2.0 13.0 0.00 0.21 0.01 54 1002.7
20260507163004 60 219 5.0 13.0 0.00 0.21 0.01 55 1002.7
20260507162503 61 250 4.0 11.0 0.00 0.21 0.01 55 1002.7
20260507162006 61 290 1.0 6.0 0.00 0.21 0.01 56 1002.8
20260507161502 61 286 3.0 8.0 0.00 0.21 0.01 53 1002.8
20260507161002 61 297 3.0 10.0 0.00 0.21 0.01 56 1002.8
20260507160506 61 299 2.0 9.0 0.00 0.21 0.01 52 1003.0
20260507160003 62 273 3.0 9.0 0.00 0.21 0.01 54 1003.0
20260507155503 61 315 5.0 10.0 0.00 0.21 0.01 55 1003.0
20260507155001 60 276 3.0 10.0 0.00 0.21 0.01 56 1003.1
20260507154501 61 270 2.0 9.0 0.00 0.21 0.01 52 1003.1
20260507154002 61 302 4.0 9.0 0.00 0.21 0.01 52 1003.1
20260507153501 62 210 5.0 13.0 0.00 0.21 0.01 50 1003.2
20260507153000 61 275 5.0 13.0 0.00 0.21 0.01 51 1003.2
20260507152601 61 234 2.0 7.0 0.00 0.21 0.01 51 1003.2
20260507152105 62 251 1.0 9.0 0.00 0.21 0.01 49 1003.4
20260507151604 62 223 1.0 10.0 0.00 0.21 0.01 51 1003.4
20260507151100 62 180 2.0 10.0 0.00 0.21 0.01 49 1003.4
20260507150559 62 331 1.0 9.0 0.00 0.21 0.01 52 1003.7
20260507150059 61 211 1.0 15.0 0.00 0.21 0.01 52 1003.7
20260507145601 61 221 6.0 15.0 0.00 0.21 0.01 52 1003.7
20260507145057 61 265 1.0 9.0 0.00 0.21 0.01 55 1003.6
20260507144603 61 315 2.0 10.0 0.00 0.21 0.01 55 1003.6
20260507144056 61 274 3.0 10.0 0.00 0.21 0.01 52 1003.6
20260507143554 61 228 4.0 9.0 0.00 0.21 0.01 56 1003.6
20260507143107 60 273 2.0 9.0 0.00 0.21 0.01 58 1003.6
20260507142553 59 257 1.0 7.0 0.00 0.21 0.01 56 1003.6
20260507142053 59 268 2.0 8.0 0.00 0.21 0.01 55 1003.5
20260507141608 59 227 2.0 9.0 0.00 0.21 0.01 57 1003.5
20260507141053 59 216 1.0 9.0 0.00 0.21 0.01 60 1003.5
20260507140549 58 314 0.0 9.0 0.00 0.21 0.01 61 1003.4
20260507140048 58 220 2.0 9.0 0.00 0.21 0.01 62 1003.4
20260507135549 58 233 0.0 6.0 0.00 0.21 0.01 61 1003.4
20260507135047 58 255 0.0 6.0 0.00 0.21 0.01 63 1003.6
20260507134546 57 341 0.0 6.0 0.00 0.21 0.01 65 1003.6
20260507134044 57 292 1.0 6.0 0.00 0.21 0.01 63 1003.6
20260507133544 56 360 0.0 7.0 0.00 0.21 0.01 67 1004.0
20260507133044 56 319 1.0 7.0 0.00 0.21 0.01 67 1004.0
20260507132544 56 336 0.0 6.0 0.00 0.21 0.01 66 1004.0
20260507132042 56 311 1.0 6.0 0.00 0.21 0.01 66 1004.0
20260507131552 55 283 1.0 9.0 0.00 0.21 0.01 66 1004.0
20260507131044 55 300 0.0 9.0 0.00 0.21 0.01 67 1004.0
20260507130542 55 300 1.0 9.0 0.00 0.21 0.01 69 1004.1
20260507130045 55 229 0.0 7.0 0.00 0.21 0.01 69 1004.1
20260507125542 54 355 0.0 7.0 0.00 0.21 0.01 70 1004.1
20260507125045 54 304 0.0 7.0 0.00 0.21 0.01 70 1004.0
20260507124540 54 278 0.0 7.0 0.00 0.21 0.01 70 1004.0
20260507124040 53 331 2.0 8.0 0.00 0.21 0.01 71 1004.0
20260507123540 53 234 0.0 8.0 0.00 0.21 0.01 72 1004.1
20260507123043 53 333 0.0 8.0 0.00 0.21 0.01 72 1004.1
20260507122539 52 283 0.0 8.0 0.00 0.21 0.01 73 1004.1
20260507122039 52 360 0.0 8.0 0.00 0.21 0.01 74 1004.2
20260507121543 51 298 0.0 7.0 0.00 0.21 0.01 73 1004.2
20260507121038 51 250 3.0 7.0 0.00 0.21 0.01 75 1004.2
20260507120537 51 300 0.0 4.0 0.00 0.21 0.01 77 1004.1
20260507120037 51 288 0.0 5.0 0.00 0.21 0.01 76 1004.1
20260507115538 51 251 3.0 5.0 0.00 0.21 0.01 77 1004.1
20260507115037 51 286 0.0 7.0 0.00 0.21 0.01 76 1004.2
20260507114536 50 292 1.0 8.0 0.00 0.21 0.01 78 1004.2
20260507114036 50 298 3.0 8.0 0.00 0.21 0.01 79 1004.2
20260507113536 50 295 3.0 6.0 0.00 0.21 0.01 79 1003.8
20260507113036 50 303 0.0 9.0 0.00 0.21 0.01 80 1003.8
20260507112536 50 256 1.0 9.0 0.00 0.21 0.01 80 1003.8
20260507112034 49 306 2.0 6.0 0.00 0.21 0.01 81 1004.1
20260507111535 49 328 0.0 5.0 0.00 0.21 0.01 81 1004.1
20260507111034 49 329 0.0 5.0 0.00 0.21 0.01 81 1004.1
20260507110534 49 269 0.0 2.0 0.00 0.21 0.01 81 1003.9
20260507110034 49 267 0.0 7.0 0.00 0.21 0.01 81 1003.9
20260507105533 49 313 2.0 7.0 0.01 0.21 0.01 82 1003.9
20260507105033 49 330 0.0 0.0 0.01 0.21 0.01 82 1003.6
20260507104536 49 330 0.0 5.0 0.01 0.21 0.01 82 1003.6
20260507104032 49 330 1.0 5.0 0.01 0.21 0.01 82 1003.6
20260507103531 49 302 0.0 8.0 0.01 0.21 0.01 82 1003.5
20260507103032 49 306 3.0 8.0 0.01 0.21 0.01 82 1003.5
20260507102531 49 329 2.0 8.0 0.01 0.21 0.01 82 1003.5
20260507102033 49 280 2.0 8.0 0.01 0.21 0.01 82 1003.3
20260507101529 49 331 1.0 7.0 0.01 0.21 0.01 82 1003.3
20260507101028 49 334 0.0 4.0 0.01 0.21 0.01 83 1003.3
20260507100528 49 292 1.0 4.0 0.01 0.21 0.01 83 1003.8
20260507100036 49 283 1.0 5.0 0.01 0.21 0.01 82 1003.8
20260507095530 49 286 2.0 7.0 0.00 0.20 0.00 82 1003.8
20260507095027 49 297 2.0 6.0 0.00 0.20 0.00 83 1003.5
20260507094525 49 270 1.0 6.0 0.00 0.20 0.00 83 1003.5
20260507094026 49 320 1.0 6.0 0.00 0.20 0.00 83 1003.5
20260507093525 49 238 0.0 7.0 0.00 0.20 0.00 83 1003.7
20260507093024 49 250 0.0 7.0 0.00 0.20 0.00 83 1003.7
20260507092524 49 272 2.0 6.0 0.00 0.20 0.00 82 1003.7
20260507092027 50 250 0.0 6.0 0.00 0.20 0.00 83 1003.6
20260507091528 50 228 0.0 9.0 0.00 0.20 0.00 83 1003.6
20260507091023 50 332 2.0 8.0 0.00 0.20 0.00 83 1003.6
20260507090526 50 282 0.0 6.0 0.00 0.20 0.00 82 1003.2
20260507090022 50 228 0.0 4.0 0.00 0.20 0.00 82 1003.2
20260507085522 49 229 0.0 6.0 0.00 0.20 0.00 83 1003.2
20260507085022 49 320 0.0 6.0 0.00 0.20 0.00 83 1003.2
20260507084521 50 281 2.0 6.0 0.00 0.20 0.00 84 1003.2
20260507084023 50 226 2.0 6.0 0.00 0.20 0.00 84 1003.2
20260507083519 50 323 1.0 8.0 0.00 0.20 0.00 84 1003.1
20260507083019 50 278 1.0 8.0 0.00 0.20 0.00 84 1003.1
20260507082517 50 296 0.0 6.0 0.00 0.20 0.00 84 1003.1
20260507082016 50 279 0.0 6.0 0.00 0.20 0.00 84 1003.3
20260507081516 50 258 1.0 5.0 0.00 0.20 0.00 84 1003.3
20260507081016 51 252 1.0 7.0 0.00 0.20 0.00 83 1003.3
20260507080516 51 278 2.0 9.0 0.00 0.20 0.00 82 1003.0
20260507080014 51 283 2.0 11.0 0.00 0.20 0.00 81 1003.0
20260507075514 51 273 0.0 11.0 0.00 0.20 0.00 81 1003.0
20260507075013 51 304 5.0 9.0 0.00 0.20 0.00 81 1002.9
20260507074513 51 321 3.0 12.0 0.00 0.20 0.00 81 1002.9
20260507074014 51 275 4.0 12.0 0.00 0.20 0.00 81 1002.9
20260507073511 51 288 2.0 8.0 0.00 0.20 0.00 81 1002.7
20260507073011 51 282 2.0 8.0 0.00 0.20 0.00 81 1002.7
20260507072510 52 295 3.0 8.0 0.00 0.20 0.00 81 1002.7
20260507072009 52 287 0.0 8.0 0.00 0.20 0.00 82 1002.7
20260507071511 52 253 3.0 8.0 0.00 0.20 0.00 83 1002.7
20260507071011 52 313 4.0 8.0 0.00 0.20 0.00 84 1002.7
20260507070507 52 235 2.0 8.0 0.00 0.20 0.00 85 1002.6
20260507070010 52 264 2.0 8.0 0.00 0.20 0.00 85 1002.6
20260507065505 52 219 0.0 4.0 0.00 0.20 0.00 86 1002.6
20260507065006 52 263 0.0 8.0 0.00 0.20 0.00 87 1002.4
20260507064504 53 292 2.0 8.0 0.00 0.20 0.00 87 1002.4
20260507064004 53 252 1.0 4.0 0.00 0.20 0.00 87 1002.4
20260507063504 53 269 0.0 0.0 0.00 0.20 0.00 87 1002.3
20260507063004 53 269 0.0 4.0 0.00 0.20 0.00 87 1002.3
20260507062503 53 269 1.0 4.0 0.00 0.20 0.00 87 1002.3
20260507062003 53 260 1.0 4.0 0.00 0.20 0.00 87 1002.2
20260507061503 53 259 0.0 5.0 0.00 0.20 0.00 87 1002.2
20260507061005 53 288 0.0 5.0 0.00 0.20 0.00 86 1002.2
20260507060501 53 315 0.0 6.0 0.00 0.20 0.00 86 1002.6
20260507060001 53 259 0.0 10.0 0.00 0.20 0.00 86 1002.6
20260507055502 53 265 0.0 5.0 0.00 0.20 0.00 87 1002.6
20260507055001 53 263 1.0 5.0 0.00 0.20 0.00 87 1002.4
20260507054608 53 242 0.0 5.0 0.00 0.20 0.00 87 1002.4
20260507054059 53 242 0.0 6.0 0.00 0.20 0.00 87 1002.4
20260507053600 53 270 0.0 6.0 0.00 0.20 0.00 87 1002.7
20260507053110 53 276 0.0 5.0 0.00 0.20 0.00 87 1002.7
20260507052558 54 265 1.0 5.0 0.00 0.20 0.00 87 1002.7
20260507052058 54 292 0.0 7.0 0.00 0.20 0.00 87 1002.8
20260507051607 54 267 1.0 7.0 0.00 0.20 0.00 87 1002.8
20260507051056 54 265 0.0 11.0 0.00 0.20 0.00 87 1002.8
20260507050556 54 279 0.0 7.0 0.00 0.20 0.00 87 1002.6
20260507050056 54 296 1.0 8.0 0.00 0.20 0.00 88 1002.6
20260507045555 54 288 2.0 8.0 0.00 0.20 0.00 87 1002.6
20260507045055 54 272 0.0 8.0 0.00 0.20 0.00 88 1002.3
20260507044557 54 254 0.0 9.0 0.00 0.20 0.00 87 1002.3
20260507044056 55 285 4.0 10.0 0.00 0.20 0.00 87 1002.3
20260507043551 55 298 4.0 10.0 0.00 0.20 0.00 87 1002.6
20260507043052 56 311 3.0 12.0 0.00 0.20 0.00 88 1002.6
20260507042547 56 281 3.0 9.0 0.00 0.20 0.00 89 1002.6
20260507042046 57 318 3.0 9.0 0.00 0.20 0.20 89 1002.5
20260507041545 57 280 4.0 9.0 0.00 0.20 0.20 89 1002.5
20260507041044 58 275 3.0 9.0 0.00 0.20 0.20 89 1002.5
20260507040542 59 307 3.0 9.0 0.00 0.20 0.20 91 1002.0
20260507040042 59 217 0.0 5.0 0.00 0.20 0.20 91 1002.0
20260507035541 59 249 0.0 5.0 0.00 0.20 0.20 91 1002.0
20260507035041 59 244 1.0 5.0 0.00 0.20 0.20 91 1001.8
20260507034540 59 221 0.0 10.0 0.00 0.20 0.20 91 1001.8
20260507034039 60 302 3.0 10.0 0.00 0.20 0.20 91 1001.8
20260507033539 60 269 3.0 12.0 0.00 0.20 0.20 92 1001.6
20260507033038 60 200 0.0 8.0 0.00 0.20 0.20 92 1001.6
20260507032538 60 279 1.0 6.0 0.00 0.20 0.20 92 1001.6
20260507032039 60 231 0.0 10.0 0.00 0.20 0.20 92 1001.3
20260507031538 60 236 4.0 10.0 0.00 0.20 0.20 91 1001.3
20260507031037 60 219 3.0 10.0 0.00 0.20 0.20 91 1001.3
20260507030537 60 218 4.0 10.0 0.00 0.20 0.20 91 1001.3
20260507030038 60 216 3.0 10.0 0.00 0.20 0.20 91 1001.3
20260507025537 60 222 3.0 8.0 0.00 0.20 0.20 91 1001.3
20260507025039 60 225 2.0 10.0 0.00 0.20 0.20 91 1001.5
20260507024535 60 223 2.0 10.0 0.00 0.20 0.20 91 1001.5
20260507024034 60 233 0.0 10.0 0.00 0.20 0.20 91 1001.5
20260507023534 60 184 3.0 9.0 0.00 0.20 0.20 91 1001.4
20260507023036 60 217 1.0 7.0 0.00 0.20 0.20 91 1001.4
20260507022534 60 215 1.0 8.0 0.00 0.20 0.20 91 1001.4
20260507022034 60 187 4.0 9.0 0.00 0.20 0.20 91 1001.4
20260507021539 60 206 3.0 9.0 0.00 0.20 0.20 91 1001.4
20260507021033 60 190 1.0 12.0 0.00 0.20 0.20 91 1001.4
20260507020533 60 190 4.0 10.0 0.00 0.20 0.20 91 1001.6
20260507020035 60 178 1.0 15.0 0.00 0.20 0.20 91 1001.6
20260507015535 60 204 2.0 15.0 0.00 0.20 0.20 91 1001.6
20260507015034 59 257 3.0 8.0 0.01 0.20 0.20 91 1001.6
20260507014531 60 207 2.0 9.0 0.01 0.20 0.20 91 1001.6
20260507014031 60 192 2.0 11.0 0.01 0.20 0.20 91 1001.6
20260507013530 60 204 4.0 11.0 0.01 0.20 0.20 91 1001.7
20260507013030 60 226 1.0 10.0 0.01 0.20 0.20 91 1001.7
20260507012534 59 215 4.0 12.0 0.01 0.20 0.20 91 1001.7
20260507012030 59 200 4.0 10.0 0.01 0.20 0.20 91 1001.7
20260507011534 60 185 4.0 10.0 0.01 0.20 0.20 91 1001.7
20260507011028 60 187 1.0 8.0 0.01 0.20 0.20 91 1001.7
20260507010530 60 174 2.0 8.0 0.01 0.20 0.20 91 1001.7
20260507010038 60 184 3.0 14.0 0.01 0.20 0.20 91 1001.7
20260507005528 60 209 6.0 14.0 0.01 0.20 0.20 91 1001.7
20260507005026 60 178 4.0 11.0 0.00 0.19 0.19 91 1001.7
20260507004529 60 198 3.0 9.0 0.00 0.19 0.19 91 1001.7
20260507004026 60 183 3.0 10.0 0.01 0.19 0.19 91 1001.7
20260507003525 60 189 4.0 10.0 0.01 0.19 0.19 91 1001.7
20260507003025 60 213 3.0 11.0 0.03 0.19 0.19 91 1001.7
20260507002524 60 201 4.0 14.0 0.05 0.19 0.19 91 1001.7
20260507002028 60 207 4.0 9.0 0.05 0.19 0.19 91 1001.5
20260507001523 60 189 3.0 9.0 0.05 0.19 0.19 91 1001.5
20260507001022 60 183 3.0 11.0 0.06 0.19 0.19 91 1001.5
20260507000522 60 186 3.0 8.0 0.06 0.19 0.19 91 1001.6
20260507000023 60 195 1.0 9.0 0.07 0.19 0.19 91 1001.6
20260506235522 60 169 3.0 9.0 0.07 0.19 0.19 91 1001.6
20260506235021 60 165 4.0 8.0 0.07 0.19 0.19 91 1001.5
20260506234521 60 186 4.0 8.0 0.07 0.19 0.19 91 1001.5
20260506234021 60 184 2.0 10.0 0.06 0.18 0.18 91 1001.5
20260506233521 60 202 5.0 12.0 0.06 0.17 0.17 91 1001.5
20260506233022 60 194 4.0 14.0 0.04 0.15 0.15 91 1001.5
20260506232518 60 178 4.0 14.0 0.03 0.14 0.14 90 1001.5
20260506232018 60 205 5.0 14.0 0.03 0.14 0.14 90 1001.7
20260506231517 61 209 3.0 14.0 0.03 0.14 0.14 90 1001.7
20260506231020 61 237 3.0 10.0 0.02 0.13 0.13 90 1001.7
20260506230516 61 187 4.0 8.0 0.02 0.13 0.13 90 1001.8
20260506230024 61 209 4.0 9.0 0.01 0.12 0.12 90 1001.8
20260506225516 61 182 4.0 9.0 0.01 0.12 0.12 90 1001.8
20260506225016 61 228 3.0 16.0 0.01 0.12 0.12 90 1001.8
20260506224515 61 187 4.0 16.0 0.01 0.12 0.12 89 1001.8
20260506224013 61 198 3.0 12.0 0.01 0.12 0.12 89 1001.8
20260506223513 61 213 7.0 17.0 0.00 0.11 0.11 88 1001.8
20260506223013 61 181 8.0 17.0 0.01 0.11 0.11 89 1001.8
20260506222512 61 200 5.0 10.0 0.01 0.11 0.11 89 1001.8
20260506222014 61 195 5.0 13.0 0.01 0.11 0.11 89 1002.0
20260506221511 61 214 4.0 13.0 0.02 0.11 0.11 89 1002.0
20260506221010 61 174 4.0 14.0 0.02 0.11 0.11 89 1002.0
20260506220512 61 184 7.0 14.0 0.02 0.11 0.11 89 1002.2
20260506220015 61 177 5.0 11.0 0.03 0.11 0.11 89 1002.2
20260506215512 61 165 3.0 11.0 0.03 0.11 0.11 89 1002.2
20260506215008 61 169 4.0 16.0 0.03 0.11 0.11 89 1002.5
20260506214507 61 178 3.0 16.0 0.04 0.11 0.11 89 1002.5
20260506214006 61 187 5.0 10.0 0.05 0.11 0.11 89 1002.5
20260506213505 61 179 3.0 10.0 0.04 0.10 0.10 89 1002.5